{"data":{"norad_id":47231,"epoch":"2026-05-25T04:29:12.975072Z","epoch_age_seconds":49007,"freshness":"FRESH","line1":"1 47231U 20092A   26145.18695573  .00005212  00000+0  20878-3 0  9999","line2":"2 47231  97.4726 215.4389 0004777 217.6069 142.4835 15.25472799304322","mean_motion":15.25472799,"eccentricity":0.0004777,"inclination_deg":97.4726,"raan_deg":215.4389,"arg_perigee_deg":217.6069,"mean_anomaly_deg":142.4835,"bstar":0.00020878,"rev_number":30432,"period_min":94.396963416455,"perigee_km":486.08546979813,"apogee_km":492.64668223695,"semimajor_km":6867.5030760175,"source":"CELESTRAK","updated_at":"2026-05-25T13:37:56.399783Z"}}